Location: Watson Lake
(60.1170°N, 128.8000°W)
Time: 11:14:20
(UTC-07:00)

Daily predictions for brighter satellites

Satellite Brightness Start Highest point End
(mag) Time Altitude Azimuth Time Altitude Azimuth Time Altitude Azimuth
Cosmos 2360 Rocket 3.6 19:52:52 10° NW 19:57:41 28° N 20:02:29 10° ENE
Cosmos 1697 Rocket 3.1 19:52:34 10° NW 19:58:09 52° NE 20:03:42 10° ESE
Cosmos 1818 3.8 19:53:36 10° WNW 19:59:05 67° NNE 20:04:32 10° ESE
Cosmos 1980 Rocket 2.8 19:55:04 10° NW 20:00:26 42° NNE 20:05:49 10° ESE
Okean 3 Rocket 4.4 19:56:24 10° N 20:00:31 33° ENE 20:04:34 10° SE
Cosmos 332 Rocket 3.8 19:55:42 10° SSW 20:00:34 81° ESE 20:05:27 10° NNE
Meteor 1-24 Rocket 3.9 19:54:32 10° NNW 20:00:36 89° ENE 20:06:29 10° SSE
USA 186 2.5 19:59:57 10° ESE 20:01:43 19° ENE 20:03:28 10° NNE
SL-08 ROCKET BODY 4.5 19:56:10 10° S 20:01:58 59° E 20:07:55 10° NNE
Meteor 2-13 Rocket 4.5 19:56:15 10° S 20:02:12 60° E 20:08:10 10° NNE
Cosmos 371 Rocket 3.3 19:58:58 10° SSW 20:03:52 76° ESE 20:08:47 10° NE
Cosmos 2184 Rocket 4.2 20:04:28 10° SSE 20:10:34 51° E 20:16:44 10° NNE
YAOGAN 6 3.9 20:08:47 10° ESE 20:11:41 23° ENE 20:14:39 10° N
Envisat 3.3 20:07:32 10° SE 20:12:25 49° ENE 20:17:20 10° NNW
Cosmos 1544 3.8 20:12:20 10° SSE 20:15:35 32° E 20:18:52 10° NNE
H-2A R/B 2.8 20:12:42 10° SSE 20:16:29 83° WSW 20:20:20 10° NNW
COSMO-SKYMED 1 2.6 20:12:27 10° NNE 20:16:51 89° W 20:21:12 10° SSW
Cosmos 2292 Rocket 4.4 20:15:23 10° SW 20:18:11 37° WNW 20:21:14 10° N
RESURS DK-1 4.4 20:15:37 10° NW 20:18:53 21° N 20:22:09 10° NE
SJ-6B 2.9 20:15:08 10° SSE 20:19:04 85° WSW 20:22:57 10° NNW
ATLAS 2AS CENTAUR R/B 3.2 20:11:15 10° WNW 20:19:27 81° SW 20:27:15 10° SE
FENGYUN 3A 4.4 20:14:27 10° S 20:19:45 58° WSW 20:25:06 10° NNW
Cosmos 1626 4.1 20:19:07 10° NNE 20:21:14 14° NE 20:23:11 11° E
Cosmos 2084 4.0 20:18:00 10° SSW 20:21:31 32° SE 20:24:58 10° ENE
COSMOS 2428 4.2 20:18:57 10° WNW 20:23:51 28° N 20:28:43 10° ENE
SL-14 R/B 4.4 20:21:08 10° N 20:24:31 26° ENE 20:27:34 12° ESE
Cosmos 1953 3.5 20:21:33 10° SE 20:24:45 22° E 20:27:57 10° NE
Cosmos 841 Rocket 3.6 20:20:43 10° S 20:25:44 55° ESE 20:30:47 10° NE
EO 1 Del DPAF 4.2 20:23:07 10° N 20:26:54 54° WNW 20:30:39 10° SW
Cosmos 1076 Rocket 4.0 20:22:50 10° N 20:27:03 43° ENE 20:31:12 10° SE
SL-27 R/B 4.0 20:24:51 10° SE 20:27:22 18° E 20:29:55 10° ENE
Cosmos 2327 Rocket 4.5 20:21:54 10° S 20:27:50 59° E 20:33:49 10° NNE
Cosmos 468 Rocket 4.1 20:23:23 10° SSW 20:28:40 84° WNW 20:34:02 10° NNE
Cosmos 389 Rocket 3.2 20:26:00 10° SSW 20:29:25 56° WNW 20:32:52 10° N
Cosmos 2333 Rocket 3.8 20:25:09 10° WNW 20:30:03 29° N 20:35:00 10° NE
SL-16 R/B 3.1 20:24:51 10° NW 20:30:07 36° NNE 20:34:58 12° E
Cosmos 1674 2.7 20:26:32 10° N 20:30:16 59° ENE 20:33:58 10° SSE
SJ 16-02 1.9 20:27:00 10° NW 20:31:22 60° WSW 20:35:42 10° SSE
NOSS 3-4 (A) 3.8 20:25:14 10° WNW 20:31:53 74° NNE 20:38:25 13° E
NOSS 3-4 (C) 3.8 20:25:20 10° WNW 20:31:59 74° NNE 20:38:31 13° E
ARGOS 4.3 20:28:16 11° ESE 20:32:28 28° NE 20:37:02 10° N
Cosmos 1726 Rocket 3.9 20:29:23 10° SSW 20:33:42 70° WNW 20:38:04 10° N
Cosmos 540 Rocket 3.9 20:29:41 10° S 20:34:24 39° ESE 20:39:09 10° NE
HJ-1C 3.9 20:32:19 10° S 20:35:40 62° WSW 20:39:03 10° NNW
H-2A R/B 3.4 20:37:47 13° E 20:41:04 23° NE 20:45:06 10° N
Cosmos 304 Rocket 3.7 20:37:29 10° SSW 20:42:15 65° ESE 20:47:03 10° NE
SPOT 5 4.2 20:40:09 13° E 20:42:44 21° NE 20:46:12 10° N
Cosmos 1763 Rocket 3.4 20:37:49 10° SSW 20:42:59 83° ESE 20:48:17 10° NNE
Cosmos 1766 3.2 20:40:19 10° S 20:44:13 68° E 20:48:06 10° NNE
Cosmos 1400 Rocket 4.4 20:41:10 10° N 20:44:21 21° NE 20:46:19 15° E
EP 1 4.3 20:42:55 10° WSW 20:45:34 84° SSE 20:48:25 12° ENE
SL-16 R/B 3.8 20:45:59 10° W 20:51:04 33° NNW 20:56:11 10° NE
COSMOS 2406 3.4 20:45:38 10° S 20:51:09 51° ESE 20:56:43 10° NE
Cosmos 2369 4.0 20:46:00 10° NW 20:51:39 69° WSW 20:57:17 10° SSE
Cosmos 2228 3.4 20:47:23 10° SSW 20:51:43 68° WNW 20:56:02 10° N
Resurs 1-3 3.7 20:50:24 10° SSE 20:54:48 83° WSW 20:59:14 10° NNW
Meteor 1-22 Rocket 4.1 20:50:26 10° S 20:55:59 80° ESE 21:01:24 10° NNE
USA 267 3.3 20:50:55 13° E 20:56:54 65° SSE 21:03:25 10° WSW
Cosmos 2237 Rocket 3.8 20:54:10 10° WNW 20:59:03 28° N 21:03:57 10° NE
Cosmos 1833 Rocket 4.0 21:01:49 17° E 21:01:49 17° E 21:04:59 10° ENE
Cosmos 2219 Rocket 3.8 20:57:04 10° NW 21:01:51 27° N 21:06:37 10° ENE
Cosmos 1733 3.9 21:00:14 14° SSE 21:03:01 32° E 21:06:29 10° NNE
Cosmos 1408 Rocket 3.7 20:59:21 10° N 21:03:37 53° ENE 21:06:47 17° SE
Cosmos 1943 4.1 21:01:17 10° WSW 21:06:52 53° NW 21:12:30 10° NE
Cosmos 2151 4.0 21:03:23 10° N 21:07:14 30° ENE 21:08:56 23° E
Helios 1B rocket 4.2 21:05:02 10° NE 21:06:48 15° ENE 21:06:48 15° ENE
Meteor 1-21 Rocket 4.5 21:02:32 10° NNW 21:08:20 76° WSW 21:13:59 10° S
Cosmos 1758 3.3 21:06:21 10° S 21:10:16 57° E 21:14:13 10° NNE
CZ-4B DEB 3.5 21:12:20 28° ENE 21:12:27 28° ENE 21:14:53 10° N
GP-B 3.1 21:09:37 10° N 21:14:07 84° W 21:18:34 10° S
Cosmos 1805 3.1 21:10:21 10° S 21:14:15 82° ESE 21:18:11 10° NNE
Cosmos 1812 Rocket 3.5 21:10:29 10° S 21:14:58 82° ESE 21:19:30 10° NNE
KORONAS-FOTON 4.0 21:11:30 10° NNW 21:15:19 72° W 21:19:06 10° S
NOSS 2-2 (D) 4.4 21:10:22 10° WNW 21:15:31 70° NNE 21:20:16 20° E
Cosmos 2074 Rocket 4.2 21:09:20 10° SSW 21:15:33 73° WNW 21:21:49 10° NNE
Cosmos 2154 Rocket 3.9 21:09:51 10° S 21:16:05 75° E 21:22:24 10° NNE
Cosmos 2360 4.2 21:11:16 10° NW 21:17:02 79° NE 21:20:53 22° SE
Thor Agena Rocket 3.9 21:12:04 10° NNE 21:17:21 71° WNW 21:22:33 10° SSW
Spot 2 Rocket 4.0 21:13:47 10° S 21:18:47 62° WSW 21:23:49 10° NNW
Cosmos-2242 3.9 21:18:11 26° ESE 21:19:01 28° E 21:22:45 10° NNE
SJ-11-01 4.3 21:16:20 10° SSE 21:20:59 86° WSW 21:25:46 10° NNW
MetOp-B 4.4 21:19:46 22° SE 21:23:04 54° ENE 21:28:18 10° NNW
Resurs 01 Rocket 2.6 21:19:42 10° S 21:24:00 48° W 21:28:18 10° NNW
Cosmos 836 Rocket 4.4 21:20:44 10° SSW 21:26:01 81° ESE 21:31:19 10° NNE
Helios 1A 2.9 21:23:35 24° SSE 21:26:03 71° ENE 21:30:14 10° NNW
MOS 1-B Rocket 4.4 21:21:44 10° S 21:27:27 59° WSW 21:33:01 10° NNW
Cosmos 2082 Rocket 3.1 21:27:22 25° ESE 21:27:32 25° ESE 21:32:06 10° NE
Cosmos 1939 Rocket 3.1 21:24:23 13° S 21:27:55 70° WSW 21:31:57 10° NNW
USA 102 4.5 21:28:13 26° NNE 21:28:13 26° NNE 21:30:59 10° NNW
Cosmos 2084 Rocket 4.4 21:24:35 10° WNW 21:28:09 35° SW 21:30:12 20° S
Cosmos 2341 Rocket 3.9 21:25:21 10° S 21:31:32 72° E 21:37:47 10° NNE
USA 186 3.2 21:30:42 12° SSW 21:32:29 24° W 21:34:28 10° NW
Cosmos 1766 Rocket 3.5 21:29:17 10° NNW 21:33:40 85° W 21:36:49 19° S
Cosmos 1656 4.5 21:28:29 10° NW 21:33:57 49° WSW 21:39:02 12° S
Cosmos 1743 Rocket 3.7 21:29:50 10° N 21:34:08 54° ENE 21:35:46 33° SE
Meteor 2-15 Rocket 4.4 21:28:45 10° NNW 21:34:52 90° W 21:40:25 13° SSE
ERS-1 Rocket 3.0 21:32:22 26° SE 21:35:12 65° ENE 21:40:12 10° NNW
Cosmos 1470 2.8 21:32:20 17° S 21:35:13 58° E 21:39:11 10° NNE
OPS 8737 4.3 21:32:07 10° WSW 21:35:29 89° SSE 21:37:13 28° ENE
Cosmos 2322 Rocket 2.4 21:30:09 10° NW 21:35:45 57° NE 21:38:34 29° ESE
Terra 3.1 21:35:06 22° ENE 21:36:30 26° NE 21:40:24 10° N
NOSS 2-2 (C) 4.4 21:31:27 10° WNW 21:36:42 76° NNE 21:40:45 26° ESE
SAR-Lupe-4 3.9 21:37:28 41° E 21:38:08 47° ENE 21:41:38 10° N
Cosmos 2056 Rocket 3.9 21:33:05 10° NNW 21:38:27 53° NE 21:40:53 30° ESE
Okean 3 Rocket 4.5 21:34:28 10° NNW 21:38:50 49° W 21:43:07 10° S
Cosmos 783 Rocket 4.4 21:34:41 10° SSW 21:39:49 63° ESE 21:44:59 10° NE
Cosmos 1697 Rocket 3.2 21:36:43 10° NW 21:42:17 56° WSW 21:46:27 18° SSE
Cosmos 1818 4.0 21:37:22 10° WNW 21:42:42 55° SW 21:45:47 24° SSE
Cosmos 2360 Rocket 2.9 21:37:41 10° NW 21:43:03 42° NNE 21:45:52 25° E
Cosmos 1980 Rocket 2.3 21:39:14 10° NW 21:44:54 75° SW 21:48:10 26° SSE
YAOGAN 6 3.1 21:42:43 21° S 21:44:58 60° WSW 21:48:38 10° NNW
SPOT 1/Viking Rocket 3.9 21:45:03 32° ESE 21:46:57 47° ENE 21:51:53 10° NNW
Cosmos 1703 3.5 21:43:58 10° N 21:47:54 53° ENE 21:48:38 45° ESE
Spot 1 3.9 21:46:32 33° SSE 21:48:21 88° ENE 21:52:28 10° NNW
Cosmos 2366 rocket 4.1 21:43:43 18° SSE 21:48:22 53° E 21:54:26 10° NNE
Envisat 4.2 21:46:48 10° SSW 21:51:36 41° W 21:56:26 10° NNW
NOSS 2-2 (E) 4.4 21:46:18 10° WNW 21:51:47 83° NNE 21:55:27 30° ESE
SAR-Lupe-1 4.1 21:54:16 55° E 21:54:35 58° ENE 21:58:09 10° NNW
Cosmos 2058 3.0 21:50:35 10° N 21:54:48 61° ENE 21:55:43 48° SE
Cosmos 2218 Rocket 4.0 21:49:34 14° S 21:54:57 61° E 22:01:03 10° NNE
Cosmos 1626 2.0 21:53:33 10° NNW 21:57:18 73° ENE 21:57:49 61° SE
RESURS DK-1 3.8 21:54:25 10° NW 21:58:06 29° NNE 21:59:31 23° ENE
Cosmos 1809 Rocket 4.3 21:52:03 10° S 21:58:10 78° E 22:04:18 10° NNE
Cosmos 1452 Rocket 4.3 21:53:13 10° NNW 21:58:12 40° NE 21:59:59 31° E
Cosmos 2285 Rocket 4.0 21:52:17 10° S 21:58:34 57° ESE 22:04:52 10° NE
Cosmos 2084 3.1 21:56:53 10° WSW 22:00:47 84° NNW 22:01:56 44° ENE
Cosmos 1953 2.8 21:56:48 10° SSW 22:00:51 63° WNW 22:04:55 10° N
SL-14 R/B 3.9 21:57:08 10° NNW 22:00:59 52° W 22:03:02 24° SSW
Cosmos 1295 Rocket 4.4 21:55:56 10° SSW 22:02:03 88° WNW 22:08:13 10° NNE
SL-27 R/B 2.6 21:58:30 10° SW 22:02:10 77° WNW 22:05:52 10° NNE
Cosmos 1500 Rocket 3.5 21:59:33 10° NNW 22:04:04 76° ENE 22:05:13 49° SSE
SL-08 R/B 4.5 22:00:39 21° S 22:04:56 62° E 22:11:04 10° NNE
Iridium 4 Rocket 3.4 22:05:41 45° SE 22:06:53 58° E 22:11:58 10° N
Meteor 2-16 Rocket 4.4 22:03:38 21° S 22:07:42 65° E 22:13:46 10° NNE
Cosmos 1328 4.4 22:04:37 10° NNW 22:08:36 56° W 22:10:22 30° SSW
MetOp-A 4.1 22:06:09 30° SSE 22:08:53 82° WSW 22:14:18 10° NNW
SJ 16-02 4.3 22:07:15 10° WNW 22:09:05 12° W 22:10:56 10° WSW
COSMOS 2428 3.7 22:04:14 10° NW 22:09:34 38° NNE 22:12:08 25° ENE
ATLAS 2AS CENTAUR R/B 4.1 22:02:33 10° WNW 22:09:46 37° WSW 22:15:30 15° S
Cosmos 1727 Rocket 4.1 22:03:34 10° NNW 22:09:54 79° W 22:14:08 22° S
Cosmos 921 Rocket 4.0 22:06:46 10° NNW 22:10:56 35° NE 22:11:37 33° ENE
ARGOS 3.1 22:09:47 34° SSE 22:12:15 88° WSW 22:17:44 10° NNW
SL-16 R/B 2.1 22:09:13 10° NW 22:14:57 83° NE 22:16:50 44° SE
SL-8 Rocket 3.9 22:08:58 10° S 22:15:08 88° ESE 22:21:22 10° NNE
Cosmos 2333 Rocket 3.5 22:10:43 10° NW 22:15:52 33° NNE 22:18:54 20° ENE
Cosmos 540 Rocket 4.1 22:10:52 10° SW 22:15:54 57° NW 22:21:00 10° NNE
Cosmos 292 Rocket 3.8 22:11:56 10° SSW 22:16:50 85° WNW 22:21:45 10° NNE
Meteor 2-14 Rocket 4.3 22:11:32 13° S 22:17:05 80° ESE 22:23:15 10° NNE
CARTOSAT-1 4.1 22:19:09 41° ENE 22:19:15 41° ENE 22:23:20 10° N
H-2A R/B 1.9 22:18:25 48° SSE 22:19:52 80° ENE 22:25:04 10° NNW
SPOT 5 2.5 22:19:24 58° SSE 22:20:15 83° ENE 22:24:53 10° NNW
IGS 5A 4.2 22:20:29 39° ENE 22:20:29 39° ENE 22:24:19 10° N
Cosmos 1400 Rocket 2.8 22:17:14 10° NNW 22:21:25 85° WSW 22:21:57 67° S
NOSS 3-4 (A) 3.9 22:16:15 10° WNW 22:22:56 64° SW 22:25:51 37° SSE
NOSS 3-4 (C) 3.9 22:16:21 10° WNW 22:23:02 64° SW 22:25:57 37° SSE
Meteor 2-21 Rocket 4.4 22:18:42 10° SSW 22:24:50 90° SE 22:31:00 10° NNE
H-2A R/B 3.3 22:26:38 29° ENE 22:26:43 29° NE 22:30:31 10° N
USA 245 4.3 22:28:47 29° NNW 22:28:47 29° NNW 22:30:27 10° NNW
Cosmos 1821 Rocket 4.3 22:32:11 41° E 22:32:34 42° E 22:38:17 10° NNE
Cosmos 1371 Rocket 4.1 22:27:54 10° NW 22:33:15 72° WSW 22:34:40 49° S
Cosmos 1000 Rocket 4.4 22:28:56 10° NNW 22:35:20 86° ENE 22:37:36 43° SSE
COSMOS 2406 3.9 22:29:52 10° WSW 22:35:32 56° NW 22:41:15 10° NE
SL-16 R/B 3.9 22:31:52 10° NW 22:36:45 28° N 22:40:55 13° ENE
Cosmos 1315 Rocket 2.9 22:33:24 10° NNW 22:36:59 70° NNE 22:36:59 70° NNE
Cosmos 1624 Rocket 4.0 22:32:09 10° NW 22:37:23 77° WSW 22:38:27 56° S
Cosmos 1805 Rocket 3.6 22:34:28 10° N 22:38:34 61° NE 22:38:34 61° NE
Cosmos 2123 Rocket 4.0 22:33:24 10° N 22:39:34 63° ENE 22:40:57 50° ESE
Cosmos 1242 Rocket 3.4 22:40:57 44° N 22:40:57 44° N 22:43:32 10° NNE
USA 267 3.2 22:38:16 44° ESE 22:40:23 68° S 22:46:56 10° W
Cosmos 864 Rocket 4.5 22:37:57 20° SSW 22:42:32 85° WNW 22:48:56 10° NNE
SL-24 R/B - RUBIN 2 4.2 22:37:31 10° WNW 22:43:11 66° NNE 22:44:22 50° ENE
Helios 1B rocket 2.5 22:39:27 10° NNE 22:43:09 69° NE 22:43:09 69° NE
Cosmos 1666 Rocket 4.0 22:39:16 10° N 22:43:18 49° NE 22:43:18 49° NE
SL-08 RB Rocket 3.9 22:43:28 53° SSW 22:44:13 63° WSW 22:48:45 10° NNW
Cosmos 1538 Rocket 3.9 22:39:21 12° SSW 22:44:14 87° ESE 22:49:30 10° NNE
Cosmos 1833 Rocket 2.6 22:43:23 54° SSE 22:44:21 64° ESE 22:49:57 10° NE
Cosmos 2237 Rocket 3.5 22:39:30 10° NW 22:44:40 34° NNE 22:47:15 23° ENE
Cosmos 2151 3.6 22:40:35 10° NNW 22:44:49 53° W 22:45:32 47° SW
USA 32 4.2 22:41:38 10° N 22:46:48 52° ENE 22:46:58 52° E
Cosmos 2219 Rocket 3.1 22:41:54 10° NW 22:47:11 40° NNE 22:48:54 32° ENE
Cosmos 923 Rocket 4.3 22:53:49 53° ENE 22:53:49 53° ENE 22:58:16 10° NE
Cosmos 1680 Rocket 4.3 22:57:05 38° ENE 22:57:05 38° ENE 23:00:40 10° NE
Cosmos-2242 3.7 22:55:01 37° SW 22:56:25 53° WNW 23:00:40 10° N
Landsat 7 3.7 22:58:17 79° SSW 22:58:31 83° WSW 23:03:19 10° NNW
In-Cosmos 22 Rocket 4.2 22:54:46 10° NNW 23:00:06 59° ENE 23:00:23 58° E
Meteor 1-16 Rocket 4.3 23:01:01 32° SW 23:03:29 69° WNW 23:08:49 10° NNE
Cosmos 2322 3.6 22:58:18 10° NW 23:04:05 76° NE 23:04:48 66° E
ALOS 2 4.4 23:04:42 22° NE 23:04:42 22° NE 23:07:48 10° N
Cosmos 1420 Rocket 4.0 23:00:17 10° NNW 23:05:39 71° NE 23:05:55 69° ENE
Cosmos 2082 Rocket 2.1 23:09:04 44° SSW 23:10:59 86° SE 23:16:45 10° NE
Cosmos 1633 Rocket 3.5 23:07:54 10° NNW 23:11:27 55° NNE 23:11:27 55° NNE
Terra 1.8 23:13:59 81° WNW 23:13:59 81° WNW 23:18:39 10° NNW
Cosmos 773 Rocket 4.1 23:11:50 39° SW 23:13:50 76° NW 23:19:06 10° NNE
ERS-1 Rocket 4.5 23:12:23 23° SW 23:14:23 30° W 23:18:50 10° NNW
Cosmos 1934 Rocket 4.0 23:18:45 62° ESE 23:18:58 63° E 23:25:15 10° NNE
Cosmos 2322 Rocket 2.7 23:14:24 10° NW 23:19:49 48° WSW 23:20:22 46° SW
Cosmos 2056 Rocket 4.2 23:15:26 10° NW 23:20:37 46° WSW 23:21:13 44° SW
Cosmos 2237 4.1 23:15:17 10° NW 23:21:04 80° NE 23:21:25 76° E
Sich 1 3.6 23:17:38 10° NNW 23:21:03 56° NNW 23:21:03 56° NNW
Cosmos 1842 Rocket 4.0 23:22:36 62° NW 23:22:36 62° NW 23:26:48 10° N
SPOT 1/Viking Rocket 4.3 23:25:42 41° WSW 23:26:28 44° W 23:31:25 10° NNW
Cosmos 2221 3.7 23:28:15 37° NNE 23:28:15 37° NNE 23:30:55 10° NNE
Cosmos 2360 Rocket 2.1 23:21:52 10° NW 23:27:32 77° SW 23:27:38 77° SW
Cosmos 1980 Rocket 4.0 23:23:58 10° NW 23:28:06 21° WSW 23:29:56 18° SW
Cosmos 1447 Rocket 4.4 23:23:32 10° NNW 23:29:55 77° ENE 23:30:30 71° ESE
RESURS DK-1 3.5 23:32:32 10° NW 23:35:25 43° NW 23:35:25 43° NW
NOSS 0 Rocket 4.2 23:30:54 10° NW 23:37:04 59° NE 23:38:03 53° ENE
Cosmos 2333 4.2 23:32:22 10° NW 23:38:02 75° NE 23:38:04 75° NE
Cosmos 1535 Rocket 4.3 23:38:46 77° S 23:39:18 88° E 23:45:30 10° NNE
Cosmos 1470 Rocket 4.4 23:35:12 10° NNW 23:38:28 47° N 23:38:28 47° N
Cosmos 1452 Rocket 3.8 23:35:26 10° NW 23:40:18 61° W 23:40:18 61° W
DMSP B5D2-2 4.2 23:37:50 10° NNE 23:42:26 66° NE 23:42:26 66° NE
Timation 2 Rocket 4.0 23:45:01 69° E 23:45:01 69° E 23:51:13 10° NE
Cosmos 921 Rocket 4.1 23:45:03 10° NNW 23:48:25 44° WNW 23:48:25 44° WNW
Meteor 2-3 Rocket 3.7 23:44:01 10° NNW 23:49:41 76° NE 23:49:41 76° NE
